Wetterdaten: Donnerstag, 24.10.2013
Datum Zeit Temperatur Luftfeuchte Luftdruck Regen Wind Richtung Richtung Taupunkt Windchill Windben
24.10.2013 00:00 9,9 C 95 % 1019,0 hPa 0,0 l/m 3,1 km/h (1 Bft) S-SO 157 9,1 C 10,6 C 3,5 km/h (1 Bft)
24.10.2013 00:05 9,9 C 95 % 1019,2 hPa 0,0 l/m 2,4 km/h (1 Bft) W-SW 247 9,1 C 10,6 C 2,1 km/h (1 Bft)
24.10.2013 00:10 9,9 C 95 % 1019,2 hPa 0,0 l/m 2,6 km/h (1 Bft) O 90 9,1 C 10,6 C 0,0 km/h (0 Bft)
24.10.2013 00:15 9,9 C 95 % 1019,2 hPa 0,0 l/m 2,3 km/h (1 Bft) S 180 9,1 C 10,6 C 0,0 km/h (0 Bft)
24.10.2013 00:18 9,9 C 95 % 1019,2 hPa 0,0 l/m 2,4 km/h (1 Bft) S 180 9,1 C 10,6 C 7,1 km/h (2 Bft)
24.10.2013 00:20 9,9 C 95 % 1019,2 hPa 0,0 l/m 2,4 km/h (1 Bft) S 180 9,1 C 10,6 C 7,1 km/h (2 Bft)
24.10.2013 00:25 9,9 C 95 % 1019,7 hPa 0,0 l/m 2,3 km/h (1 Bft) NO 45 9,1 C 10,6 C 8,5 km/h (2 Bft)
24.10.2013 00:30 9,9 C 95 % 1019,7 hPa 0,0 l/m 3,2 km/h (1 Bft) S 180 9,1 C 10,5 C 8,7 km/h (2 Bft)
24.10.2013 00:35 9,8 C 95 % 1019,7 hPa 0,0 l/m 3,9 km/h (1 Bft) S-SO 157 9,0 C 10,6 C 10,3 km/h (2 Bft)
24.10.2013 00:40 9,8 C 95 % 1019,7 hPa 0,0 l/m 3,5 km/h (1 Bft) O-NO 67 9,0 C 10,6 C 4,3 km/h (1 Bft)
24.10.2013 00:45 9,9 C 95 % 1019,9 hPa 0,0 l/m 3,7 km/h (1 Bft) N-NO 22 9,1 C 10,4 C 5,0 km/h (1 Bft)
24.10.2013 00:50 9,9 C 95 % 1019,9 hPa 0,0 l/m 4,5 km/h (1 Bft) O-NO 67 9,1 C 10,4 C 3,5 km/h (1 Bft)
24.10.2013 00:55 9,9 C 95 % 1019,9 hPa 0,0 l/m 4,2 km/h (1 Bft) NO 45 9,1 C 10,4 C 5,1 km/h (1 Bft)
24.10.2013 01:00 9,8 C 95 % 1019,9 hPa 0,0 l/m 4,0 km/h (1 Bft) O-NO 67 9,0 C 10,3 C 4,0 km/h (1 Bft)
24.10.2013 01:05 9,7 C 95 % 1019,8 hPa 0,0 l/m 2,9 km/h (1 Bft) O-SO 112 8,9 C 10,3 C 2,3 km/h (1 Bft)
24.10.2013 01:10 9,6 C 95 % 1019,8 hPa 0,0 l/m 1,1 km/h (1 Bft) O-SO 112 8,8 C 10,1 C 0,0 km/h (0 Bft)
24.10.2013 01:15 9,7 C 95 % 1019,8 hPa 0,0 l/m 0,5 km/h (0 Bft) NO 45 8,9 C 10,0 C 0,0 km/h (0 Bft)
24.10.2013 01:20 9,5 C 95 % 1019,8 hPa 0,0 l/m 0,3 km/h (0 Bft) O-SO 112 8,7 C 9,9 C 0,0 km/h (0 Bft)
24.10.2013 01:25 9,4 C 95 % 1019,8 hPa 0,0 l/m 0,0 km/h (0 Bft) O 90 8,6 C 9,8 C 0,0 km/h (0 Bft)
24.10.2013 01:30 9,6 C 95 % 1019,8 hPa 0,0 l/m 0,8 km/h (0 Bft) O 90 8,8 C 9,7 C 3,1 km/h (1 Bft)
24.10.2013 01:35 9,6 C 95 % 1019,8 hPa 0,0 l/m 1,4 km/h (1 Bft) S-SO 157 8,8 C 9,8 C 0,0 km/h (0 Bft)
24.10.2013 01:40 9,6 C 95 % 1019,8 hPa 0,0 l/m 0,8 km/h (0 Bft) O 90 8,8 C 9,8 C 0,0 km/h (0 Bft)
24.10.2013 01:45 9,4 C 95 % 1019,8 hPa 0,0 l/m 0,0 km/h (0 Bft) S-SW 202 8,6 C 9,8 C 0,0 km/h (0 Bft)
24.10.2013 01:50 9,5 C 95 % 1019,8 hPa 0,0 l/m 0,2 km/h (0 Bft) W-NW 292 8,7 C 9,8 C 0,0 km/h (0 Bft)
24.10.2013 01:55 9,4 C 95 % 1019,8 hPa 0,0 l/m 0,2 km/h (0 Bft) N-NO 22 8,6 C 9,7 C 0,0 km/h (0 Bft)
24.10.2013 02:00 9,5 C 95 % 1019,8 hPa 0,0 l/m 0,5 km/h (0 Bft) N-NW 337 8,7 C 9,7 C 2,9 km/h (1 Bft)
24.10.2013 02:05 9,5 C 95 % 1019,8 hPa 0,0 l/m 0,5 km/h (0 Bft) N-NO 22 8,7 C 9,7 C 0,0 km/h (0 Bft)
24.10.2013 02:10 9,4 C 95 % 1019,8 hPa 0,0 l/m 0,2 km/h (0 Bft) NO 45 8,6 C 9,6 C 0,0 km/h (0 Bft)
24.10.2013 02:15 9,3 C 95 % 1019,8 hPa 0,0 l/m 0,2 km/h (0 Bft) O-SO 112 8,5 C 9,6 C 1,6 km/h (1 Bft)
24.10.2013 02:20 9,4 C 95 % 1019,8 hPa 0,0 l/m 0,2 km/h (0 Bft) O-SO 112 8,6 C 9,6 C 0,0 km/h (0 Bft)
24.10.2013 02:25 9,4 C 95 % 1020,1 hPa 0,0 l/m 0,5 km/h (0 Bft) N-NO 22 8,6 C 9,6 C 0,0 km/h (0 Bft)
24.10.2013 02:30 9,4 C 95 % 1020,1 hPa 0,0 l/m 0,6 km/h (0 Bft) O 90 8,6 C 9,6 C 3,1 km/h (1 Bft)
24.10.2013 02:35 9,4 C 95 % 1020,1 hPa 0,0 l/m 0,8 km/h (0 Bft) O 90 8,6 C 9,6 C 0,0 km/h (0 Bft)
24.10.2013 02:40 9,3 C 95 % 1020,1 hPa 0,0 l/m 0,5 km/h (0 Bft) O 90 8,5 C 9,6 C 0,0 km/h (0 Bft)
24.10.2013 02:45 9,4 C 95 % 1020,2 hPa 0,0 l/m 0,3 km/h (0 Bft) N 360 8,6 C 9,6 C 1,8 km/h (1 Bft)
24.10.2013 02:50 9,4 C 95 % 1020,2 hPa 0,0 l/m 0,3 km/h (0 Bft) NW 315 8,6 C 9,7 C 0,0 km/h (0 Bft)
24.10.2013 02:55 9,5 C 95 % 1020,2 hPa 0,0 l/m 0,6 km/h (0 Bft) O 90 8,7 C 9,9 C 1,6 km/h (1 Bft)
24.10.2013 03:00 9,5 C 95 % 1020,2 hPa 0,0 l/m 0,6 km/h (0 Bft) S-SW 202 8,7 C 9,9 C 2,9 km/h (1 Bft)
24.10.2013 03:05 9,5 C 95 % 1020,2 hPa 0,0 l/m 1,0 km/h (0 Bft) SW 225 8,7 C 9,9 C 0,0 km/h (0 Bft)
24.10.2013 03:10 9,5 C 95 % 1020,2 hPa 0,0 l/m 0,8 km/h (0 Bft) SO 135 8,7 C 9,9 C 1,8 km/h (1 Bft)
24.10.2013 03:15 9,5 C 95 % 1020,2 hPa 0,0 l/m 1,0 km/h (0 Bft) S-SO 157 8,7 C 9,9 C 3,2 km/h (1 Bft)
24.10.2013 03:20 9,5 C 95 % 1020,2 hPa 0,0 l/m 1,1 km/h (1 Bft) N-NO 22 8,7 C 9,9 C 0,0 km/h (0 Bft)
24.10.2013 03:25 9,4 C 95 % 1020,3 hPa 0,0 l/m 0,8 km/h (0 Bft) N 360 8,6 C 9,8 C 0,0 km/h (0 Bft)
24.10.2013 03:30 9,4 C 95 % 1020,3 hPa 0,0 l/m 0,3 km/h (0 Bft) O-SO 112 8,6 C 9,8 C 0,0 km/h (0 Bft)
24.10.2013 03:35 9,4 C 95 % 1020,3 hPa 0,0 l/m 0,2 km/h (0 Bft) O-SO 112 8,6 C 9,7 C 0,0 km/h (0 Bft)
24.10.2013 03:40 9,4 C 95 % 1020,3 hPa 0,0 l/m 0,2 km/h (0 Bft) S 180 8,6 C 9,7 C 0,0 km/h (0 Bft)
24.10.2013 03:45 9,4 C 95 % 1020,2 hPa 0,0 l/m 0,5 km/h (0 Bft) N-NO 22 8,6 C 9,7 C 2,4 km/h (1 Bft)
24.10.2013 03:50 9,3 C 95 % 1020,2 hPa 0,0 l/m 0,3 km/h (0 Bft) NO 45 8,5 C 9,7 C 0,0 km/h (0 Bft)
24.10.2013 03:55 9,4 C 95 % 1020,2 hPa 0,0 l/m 0,5 km/h (0 Bft) N-NW 337 8,6 C 9,6 C 0,0 km/h (0 Bft)
24.10.2013 04:00 9,3 C 95 % 1020,2 hPa 0,0 l/m 0,3 km/h (0 Bft) N-NO 22 8,5 C 9,6 C 0,0 km/h (0 Bft)
24.10.2013 04:05 9,2 C 95 % 1020,3 hPa 0,0 l/m 0,0 km/h (0 Bft) NO 45 8,4 C 9,6 C 0,0 km/h (0 Bft)
24.10.2013 04:10 9,2 C 95 % 1020,3 hPa 0,0 l/m 0,0 km/h (0 Bft) O 90 8,4 C 9,5 C 0,0 km/h (0 Bft)
24.10.2013 04:15 9,1 C 95 % 1020,3 hPa 0,0 l/m 0,0 km/h (0 Bft) S-SO 157 8,3 C 9,5 C 0,0 km/h (0 Bft)
24.10.2013 04:20 9,2 C 95 % 1020,3 hPa 0,0 l/m 0,3 km/h (0 Bft) S 180 8,4 C 9,5 C 1,6 km/h (1 Bft)
24.10.2013 04:25 9,2 C 95 % 1020,5 hPa 0,0 l/m 0,3 km/h (0 Bft) W-SW 247 8,4 C 9,5 C 3,2 km/h (1 Bft)
24.10.2013 04:30 9,1 C 95 % 1020,5 hPa 0,0 l/m 0,6 km/h (0 Bft) O-SO 112 8,3 C 9,5 C 0,0 km/h (0 Bft)
24.10.2013 04:35 9,0 C 95 % 1020,5 hPa 0,0 l/m 0,5 km/h (0 Bft) S-SW 202 8,2 C 9,4 C 0,0 km/h (0 Bft)
24.10.2013 04:40 8,7 C 96 % 1020,5 hPa 0,0 l/m 0,3 km/h (0 Bft) S 180 8,1 C 9,3 C 1,8 km/h (1 Bft)
24.10.2013 04:45 8,7 C 96 % 1020,2 hPa 0,0 l/m 0,3 km/h (0 Bft) O 90 8,1 C 9,2 C 0,0 km/h (0 Bft)
24.10.2013 04:50 8,7 C 96 % 1020,2 hPa 0,0 l/m 0,3 km/h (0 Bft) S-SW 202 8,1 C 9,1 C 2,9 km/h (1 Bft)
24.10.2013 04:55 8,8 C 96 % 1020,2 hPa 0,0 l/m 0,5 km/h (0 Bft) S 180 8,2 C 9,1 C 0,0 km/h (0 Bft)
24.10.2013 05:00 8,6 C 96 % 1020,2 hPa 0,0 l/m 0,6 km/h (0 Bft) W-SW 247 8,0 C 9,1 C 0,0 km/h (0 Bft)
24.10.2013 05:05 8,9 C 96 % 1020,5 hPa 0,0 l/m 1,1 km/h (1 Bft) O 90 8,3 C 9,2 C 4,8 km/h (1 Bft)
24.10.2013 05:10 8,7 C 96 % 1020,5 hPa 0,0 l/m 1,0 km/h (0 Bft) W-SW 247 8,1 C 9,2 C 0,0 km/h (0 Bft)
24.10.2013 05:15 8,6 C 96 % 1020,5 hPa 0,0 l/m 0,6 km/h (0 Bft) NO 45 8,0 C 9,0 C 2,4 km/h (1 Bft)
24.10.2013 05:20 8,7 C 96 % 1020,5 hPa 0,0 l/m 0,3 km/h (0 Bft) O 90 8,1 C 9,0 C 0,0 km/h (0 Bft)
24.10.2013 05:25 8,5 C 96 % 1020,4 hPa 0,0 l/m 0,3 km/h (0 Bft) W-SW 247 7,9 C 8,7 C 3,4 km/h (1 Bft)
24.10.2013 05:30 8,4 C 95 % 1020,4 hPa 0,0 l/m 0,3 km/h (0 Bft) S-SW 202 7,6 C 8,7 C 0,0 km/h (0 Bft)
24.10.2013 05:35 8,3 C 96 % 1020,4 hPa 0,0 l/m 0,8 km/h (0 Bft) NO 45 7,7 C 8,5 C 0,0 km/h (0 Bft)
24.10.2013 05:40 8,2 C 95 % 1020,4 hPa 0,0 l/m 1,1 km/h (1 Bft) O-SO 112 7,4 C 8,4 C 2,7 km/h (1 Bft)
24.10.2013 05:45 8,2 C 96 % 1020,7 hPa 0,0 l/m 1,6 km/h (1 Bft) O-SO 112 7,6 C 8,4 C 0,0 km/h (0 Bft)
24.10.2013 05:50 8,3 C 96 % 1020,7 hPa 0,0 l/m 1,3 km/h (1 Bft) N 360 7,7 C 8,3 C 1,6 km/h (1 Bft)
24.10.2013 05:55 8,0 C 95 % 1020,7 hPa 0,0 l/m 0,8 km/h (0 Bft) S 180 7,2 C 8,3 C 0,0 km/h (0 Bft)
24.10.2013 06:00 7,9 C 96 % 1020,7 hPa 0,0 l/m 1,0 km/h (0 Bft) S-SO 157 7,3 C 8,2 C 2,4 km/h (1 Bft)
24.10.2013 06:05 7,9 C 96 % 1020,9 hPa 0,0 l/m 0,5 km/h (0 Bft) O 90 7,3 C 8,2 C 0,0 km/h (0 Bft)
24.10.2013 06:10 8,2 C 96 % 1020,9 hPa 0,0 l/m 0,8 km/h (0 Bft) O-SO 112 7,6 C 8,3 C 3,1 km/h (1 Bft)
24.10.2013 06:15 8,5 C 95 % 1020,9 hPa 0,0 l/m 1,3 km/h (1 Bft) N-NO 22 7,7 C 8,4 C 1,6 km/h (1 Bft)
24.10.2013 06:18 8,4 C 96 % 1020,9 hPa 0,0 l/m 1,3 km/h (1 Bft) NO 45 7,8 C 8,5 C 2,1 km/h (1 Bft)
24.10.2013 06:20 8,4 C 96 % 1020,9 hPa 0,0 l/m 1,3 km/h (1 Bft) NO 45 7,8 C 8,5 C 2,1 km/h (1 Bft)
24.10.2013 06:25 8,2 C 96 % 1020,6 hPa 0,0 l/m 1,8 km/h (1 Bft) S-SO 157 7,6 C 8,6 C 1,8 km/h (1 Bft)
24.10.2013 06:30 8,1 C 96 % 1020,6 hPa 0,0 l/m 1,6 km/h (1 Bft) S 180 7,5 C 8,6 C 2,1 km/h (1 Bft)
24.10.2013 06:35 7,8 C 96 % 1020,6 hPa 0,0 l/m 0,6 km/h (0 Bft) NO 45 7,2 C 8,4 C 0,0 km/h (0 Bft)
24.10.2013 06:40 7,8 C 96 % 1020,6 hPa 0,0 l/m 0,3 km/h (0 Bft) O 90 7,2 C 8,2 C 0,0 km/h (0 Bft)
24.10.2013 06:45 7,7 C 96 % 1020,8 hPa 0,0 l/m 0,0 km/h (0 Bft) NO 45 7,1 C 8,0 C 0,0 km/h (0 Bft)
24.10.2013 06:50 7,8 C 96 % 1020,8 hPa 0,0 l/m 0,2 km/h (0 Bft) SO 135 7,2 C 8,0 C 0,0 km/h (0 Bft)
24.10.2013 06:55 7,7 C 96 % 1020,8 hPa 0,0 l/m 0,5 km/h (0 Bft) S 180 7,1 C 8,0 C 0,0 km/h (0 Bft)
24.10.2013 07:00 7,7 C 96 % 1020,8 hPa 0,0 l/m 0,3 km/h (0 Bft) O-SO 112 7,1 C 8,0 C 0,0 km/h (0 Bft)
24.10.2013 07:05 7,9 C 96 % 1020,9 hPa 0,0 l/m 0,0 km/h (0 Bft) S-SO 157 7,3 C 8,0 C 0,0 km/h (0 Bft)
24.10.2013 07:10 8,1 C 96 % 1020,9 hPa 0,0 l/m 0,0 km/h (0 Bft) SO 135 7,5 C 8,2 C 0,0 km/h (0 Bft)
24.10.2013 07:15 8,3 C 96 % 1020,9 hPa 0,0 l/m 0,2 km/h (0 Bft) O-SO 112 7,7 C 8,3 C 0,0 km/h (0 Bft)
24.10.2013 07:20 8,2 C 96 % 1020,9 hPa 0,0 l/m 0,2 km/h (0 Bft) O 90 7,6 C 8,4 C 0,0 km/h (0 Bft)
24.10.2013 07:25 8,1 C 96 % 1020,9 hPa 0,0 l/m 0,0 km/h (0 Bft) S 180 7,5 C 8,4 C 0,0 km/h (0 Bft)
24.10.2013 07:30 7,9 C 96 % 1020,9 hPa 0,0 l/m 0,2 km/h (0 Bft) W-SW 247 7,3 C 8,2 C 1,9 km/h (1 Bft)
24.10.2013 07:35 7,6 C 96 % 1020,9 hPa 0,7 l/m 0,2 km/h (0 Bft) S-SW 202 7,0 C 8,0 C 0,0 km/h (0 Bft)
24.10.2013 07:40 7,5 C 96 % 1020,9 hPa 0,0 l/m 0,2 km/h (0 Bft) SO 135 6,9 C 7,8 C 0,0 km/h (0 Bft)
24.10.2013 07:45 7,3 C 96 % 1020,9 hPa 0,0 l/m 0,0 km/h (0 Bft) S-SO 157 6,7 C 7,6 C 0,0 km/h (0 Bft)
24.10.2013 07:50 7,6 C 96 % 1020,9 hPa 0,0 l/m 0,6 km/h (0 Bft) O-NO 67 7,0 C 7,5 C 4,5 km/h (1 Bft)
24.10.2013 07:55 7,3 C 96 % 1020,9 hPa 0,0 l/m 1,0 km/h (0 Bft) N-NO 22 6,7 C 7,6 C 0,0 km/h (0 Bft)
24.10.2013 08:00 7,4 C 96 % 1020,9 hPa 0,0 l/m 0,6 km/h (0 Bft) O 90 6,8 C 7,6 C 0,0 km/h (0 Bft)
24.10.2013 08:05 7,3 C 96 % 1021,2 hPa 0,0 l/m 0,2 km/h (0 Bft) N-NO 22 6,7 C 7,5 C 0,0 km/h (0 Bft)
24.10.2013 08:10 7,2 C 96 % 1021,2 hPa 0,0 l/m 0,2 km/h (0 Bft) N-NO 22 6,6 C 7,5 C 0,0 km/h (0 Bft)
24.10.2013 08:15 7,0 C 96 % 1021,2 hPa 0,0 l/m 0,0 km/h (0 Bft) N-NO 22 6,4 C 7,3 C 0,0 km/h (0 Bft)
24.10.2013 08:20 7,0 C 96 % 1021,2 hPa 0,0 l/m 0,0 km/h (0 Bft) N-NO 22 6,4 C 7,2 C 0,0 km/h (0 Bft)
24.10.2013 08:25 6,9 C 96 % 1021,4 hPa 0,0 l/m 0,0 km/h (0 Bft) N-NO 22 6,3 C 7,2 C 0,0 km/h (0 Bft)
24.10.2013 08:30 6,8 C 96 % 1021,4 hPa 0,0 l/m 0,0 km/h (0 Bft) N-NO 22 6,2 C 7,2 C 0,0 km/h (0 Bft)
24.10.2013 08:35 6,9 C 96 % 1021,4 hPa 0,0 l/m 0,0 km/h (0 Bft) NO 45 6,3 C 7,1 C 0,0 km/h (0 Bft)
24.10.2013 08:40 6,8 C 96 % 1021,4 hPa 0,0 l/m 0,0 km/h (0 Bft) N 360 6,2 C 7,2 C 0,0 km/h (0 Bft)
24.10.2013 08:45 7,1 C 96 % 1021,7 hPa 0,0 l/m 0,0 km/h (0 Bft) O 90 6,5 C 7,3 C 0,0 km/h (0 Bft)
24.10.2013 08:50 7,2 C 96 % 1021,7 hPa 0,0 l/m 0,0 km/h (0 Bft) O 90 6,6 C 7,5 C 0,0 km/h (0 Bft)
24.10.2013 08:55 7,4 C 96 % 1021,7 hPa 0,0 l/m 0,0 km/h (0 Bft) N 360 6,8 C 7,7 C 0,0 km/h (0 Bft)
24.10.2013 09:00 7,3 C 96 % 1021,7 hPa 0,0 l/m 0,0 km/h (0 Bft) N-NO 22 6,7 C 7,7 C 0,0 km/h (0 Bft)
24.10.2013 09:05 7,3 C 96 % 1022,0 hPa 0,0 l/m 0,0 km/h (0 Bft) NO 45 6,7 C 7,6 C 0,0 km/h (0 Bft)
24.10.2013 09:10 7,2 C 96 % 1022,0 hPa 0,0 l/m 0,0 km/h (0 Bft) NO 45 6,6 C 7,6 C 0,0 km/h (0 Bft)
24.10.2013 09:15 7,4 C 96 % 1022,0 hPa 0,0 l/m 0,0 km/h (0 Bft) NO 45 6,8 C 7,7 C 0,0 km/h (0 Bft)
24.10.2013 09:20 7,6 C 96 % 1022,0 hPa 0,0 l/m 0,0 km/h (0 Bft) NO 45 7,0 C 7,8 C 0,0 km/h (0 Bft)
24.10.2013 09:25 7,6 C 96 % 1022,2 hPa 0,0 l/m 0,0 km/h (0 Bft) O-NO 67 7,0 C 7,8 C 0,0 km/h (0 Bft)
24.10.2013 09:30 7,7 C 96 % 1022,2 hPa 0,0 l/m 0,0 km/h (0 Bft) NO 45 7,1 C 8,0 C 0,0 km/h (0 Bft)
24.10.2013 09:35 7,9 C 96 % 1022,2 hPa 0,0 l/m 0,3 km/h (0 Bft) O-NO 67 7,3 C 8,3 C 1,9 km/h (1 Bft)
24.10.2013 09:40 8,0 C 96 % 1022,2 hPa 0,0 l/m 0,6 km/h (0 Bft) O-NO 67 7,4 C 8,7 C 0,0 km/h (0 Bft)
24.10.2013 09:45 8,1 C 96 % 1022,1 hPa 0,0 l/m 0,5 km/h (0 Bft) NO 45 7,5 C 9,4 C 0,0 km/h (0 Bft)
24.10.2013 09:50 7,9 C 96 % 1022,1 hPa 0,0 l/m 0,0 km/h (0 Bft) O-NO 67 7,3 C 9,5 C 0,0 km/h (0 Bft)
24.10.2013 09:55 8,0 C 96 % 1022,1 hPa 0,0 l/m 0,0 km/h (0 Bft) N-NO 22 7,4 C 11,4 C 0,0 km/h (0 Bft)
24.10.2013 10:00 8,1 C 96 % 1022,1 hPa 0,0 l/m 0,2 km/h (0 Bft) S-SW 202 7,5 C 12,4 C 2,3 km/h (1 Bft)
24.10.2013 10:05 8,4 C 96 % 1022,2 hPa 0,0 l/m 0,2 km/h (0 Bft) NO 45 7,8 C 12,7 C 0,0 km/h (0 Bft)
24.10.2013 10:10 8,5 C 96 % 1022,2 hPa 0,0 l/m 0,3 km/h (0 Bft) NO 45 7,9 C 12,5 C 0,0 km/h (0 Bft)
24.10.2013 10:15 8,7 C 96 % 1022,2 hPa 0,0 l/m 0,2 km/h (0 Bft) O-NO 67 8,1 C 12,2 C 2,1 km/h (1 Bft)
24.10.2013 10:20 9,0 C 96 % 1022,2 hPa 0,0 l/m 0,2 km/h (0 Bft) NO 45 8,4 C 11,8 C 0,0 km/h (0 Bft)
24.10.2013 10:25 9,1 C 96 % 1022,1 hPa 0,0 l/m 0,3 km/h (0 Bft) N-NO 22 8,5 C 11,5 C 0,0 km/h (0 Bft)
24.10.2013 10:30 9,3 C 96 % 1022,1 hPa 0,0 l/m 0,2 km/h (0 Bft) O 90 8,7 C 11,6 C 0,0 km/h (0 Bft)
24.10.2013 10:35 9,6 C 96 % 1022,1 hPa 0,0 l/m 0,3 km/h (0 Bft) O 90 9,0 C 12,4 C 0,0 km/h (0 Bft)
24.10.2013 10:40 9,9 C 96 % 1022,1 hPa 0,0 l/m 0,5 km/h (0 Bft) O 90 9,3 C 13,3 C 2,3 km/h (1 Bft)
24.10.2013 10:45 10,1 C 96 % 1022,4 hPa 0,0 l/m 0,3 km/h (0 Bft) O 90 9,5 C 14,7 C 1,6 km/h (1 Bft)
24.10.2013 10:50 10,2 C 96 % 1022,4 hPa 0,0 l/m 0,3 km/h (0 Bft) O-SO 112 9,6 C 15,6 C 0,0 km/h (0 Bft)
24.10.2013 10:55 10,4 C 96 % 1022,4 hPa 0,0 l/m 0,2 km/h (0 Bft) O-SO 112 9,8 C 17,3 C 0,0 km/h (0 Bft)
24.10.2013 11:00 10,4 C 96 % 1022,4 hPa 0,0 l/m 0,0 km/h (0 Bft) O 90 9,8 C 18,4 C 0,0 km/h (0 Bft)
24.10.2013 11:05 10,6 C 96 % 1022,9 hPa 0,0 l/m 0,0 km/h (0 Bft) NO 45 10,0 C 19,8 C 0,0 km/h (0 Bft)
24.10.2013 11:10 10,7 C 96 % 1022,9 hPa 0,0 l/m 0,0 km/h (0 Bft) N-NW 337 10,1 C 20,3 C 0,0 km/h (0 Bft)
24.10.2013 11:15 11,1 C 95 % 1022,9 hPa 0,0 l/m 0,2 km/h (0 Bft) N 360 10,3 C 20,8 C 0,0 km/h (0 Bft)
24.10.2013 11:20 11,7 C 95 % 1022,9 hPa 0,0 l/m 0,2 km/h (0 Bft) O-NO 67 10,9 C 21,1 C 0,0 km/h (0 Bft)
24.10.2013 11:25 12,1 C 95 % 1023,1 hPa 0,0 l/m 0,3 km/h (0 Bft) NO 45 11,3 C 21,5 C 3,2 km/h (1 Bft)
24.10.2013 11:30 12,4 C 95 % 1023,1 hPa 0,0 l/m 0,3 km/h (0 Bft) NO 45 11,6 C 21,2 C 0,0 km/h (0 Bft)
24.10.2013 11:35 12,1 C 94 % 1023,1 hPa 0,0 l/m 1,1 km/h (1 Bft) NO 45 11,2 C 21,2 C 3,4 km/h (1 Bft)
24.10.2013 11:40 12,0 C 93 % 1023,1 hPa 0,0 l/m 1,8 km/h (1 Bft) NO 45 10,9 C 21,0 C 4,2 km/h (1 Bft)
24.10.2013 11:45 11,9 C 93 % 1023,4 hPa 0,0 l/m 1,9 km/h (1 Bft) NO 45 10,8 C 21,1 C 0,0 km/h (0 Bft)
24.10.2013 11:50 11,9 C 93 % 1023,4 hPa 0,0 l/m 1,1 km/h (1 Bft) N 360 10,8 C 21,4 C 0,0 km/h (0 Bft)
24.10.2013 11:55 12,0 C 92 % 1023,4 hPa 0,0 l/m 1,4 km/h (1 Bft) O-NO 67 10,7 C 21,3 C 0,0 km/h (0 Bft)
24.10.2013 12:00 12,0 C 92 % 1023,4 hPa 0,0 l/m 1,4 km/h (1 Bft) NO 45 10,7 C 21,5 C 2,6 km/h (1 Bft)
24.10.2013 12:05 12,7 C 91 % 1023,5 hPa 0,0 l/m 1,4 km/h (1 Bft) O 90 11,3 C 21,7 C 2,6 km/h (1 Bft)
24.10.2013 12:10 13,7 C 87 % 1023,5 hPa 0,0 l/m 1,8 km/h (1 Bft) O 90 11,6 C 21,9 C 0,0 km/h (0 Bft)
24.10.2013 12:15 13,7 C 82 % 1023,5 hPa 0,0 l/m 1,8 km/h (1 Bft) NW 315 10,7 C 22,2 C 5,1 km/h (1 Bft)
24.10.2013 12:20 14,7 C 79 % 1023,5 hPa 0,0 l/m 1,8 km/h (1 Bft) N 360 11,1 C 21,8 C 1,6 km/h (1 Bft)
24.10.2013 12:25 13,7 C 78 % 1023,4 hPa 0,0 l/m 1,6 km/h (1 Bft) O-SO 112 9,9 C 21,8 C 0,0 km/h (0 Bft)
24.10.2013 12:30 14,3 C 82 % 1023,4 hPa 0,0 l/m 0,6 km/h (0 Bft) NO 45 11,3 C 22,3 C 0,0 km/h (0 Bft)
24.10.2013 12:35 14,3 C 78 % 1023,4 hPa 0,0 l/m 0,6 km/h (0 Bft) NW 315 10,5 C 22,7 C 5,1 km/h (1 Bft)
24.10.2013 12:40 14,6 C 79 % 1023,4 hPa 0,0 l/m 2,3 km/h (1 Bft) N 360 11,0 C 22,2 C 4,0 km/h (1 Bft)
24.10.2013 12:45 15,1 C 79 % 1023,4 hPa 0,0 l/m 3,5 km/h (1 Bft) N 360 11,5 C 21,4 C 0,0 km/h (0 Bft)
24.10.2013 12:50 14,8 C 82 % 1023,4 hPa 0,0 l/m 2,7 km/h (1 Bft) NO 45 11,8 C 21,5 C 2,3 km/h (1 Bft)
24.10.2013 12:55 14,9 C 74 % 1023,4 hPa 0,0 l/m 2,4 km/h (1 Bft) N-NO 22 10,3 C 21,6 C 3,7 km/h (1 Bft)
24.10.2013 13:00 15,5 C 80 % 1023,4 hPa 0,0 l/m 2,6 km/h (1 Bft) N-NO 22 12,1 C 21,7 C 0,0 km/h (0 Bft)
24.10.2013 13:05 14,9 C 75 % 1023,5 hPa 0,0 l/m 1,9 km/h (1 Bft) N 360 10,5 C 22,2 C 6,0 km/h (2 Bft)
24.10.2013 13:10 15,1 C 78 % 1023,5 hPa 0,0 l/m 2,3 km/h (1 Bft) N 360 11,3 C 21,2 C 3,4 km/h (1 Bft)
24.10.2013 13:15 15,3 C 76 % 1023,5 hPa 0,0 l/m 3,7 km/h (1 Bft) NW 315 11,1 C 20,6 C 5,6 km/h (1 Bft)
24.10.2013 13:20 15,5 C 75 % 1023,5 hPa 0,0 l/m 3,7 km/h (1 Bft) N-NW 337 11,1 C 20,6 C 0,0 km/h (0 Bft)
24.10.2013 13:25 15,5 C 73 % 1023,8 hPa 0,0 l/m 3,9 km/h (1 Bft) N-NW 337 10,7 C 20,7 C 3,4 km/h (1 Bft)
24.10.2013 13:30 15,7 C 75 % 1023,8 hPa 0,0 l/m 3,4 km/h (1 Bft) W 270 11,3 C 20,9 C 2,1 km/h (1 Bft)
24.10.2013 13:35 15,5 C 69 % 1023,8 hPa 0,0 l/m 3,5 km/h (1 Bft) NW 315 9,8 C 21,1 C 2,4 km/h (1 Bft)
24.10.2013 13:40 15,6 C 65 % 1023,8 hPa 0,0 l/m 3,9 km/h (1 Bft) W-NW 292 9,0 C 21,1 C 7,6 km/h (2 Bft)
24.10.2013 13:45 16,2 C 67 % 1023,4 hPa 0,0 l/m 4,7 km/h (1 Bft) O 90 10,1 C 20,7 C 5,1 km/h (1 Bft)
24.10.2013 13:50 16,2 C 64 % 1023,4 hPa 0,0 l/m 4,0 km/h (1 Bft) N-NW 337 9,4 C 21,0 C 0,0 km/h (0 Bft)
24.10.2013 13:55 16,4 C 59 % 1023,4 hPa 0,0 l/m 3,7 km/h (1 Bft) W-NW 292 8,4 C 21,4 C 8,7 km/h (2 Bft)
24.10.2013 14:00 16,2 C 59 % 1023,4 hPa 0,0 l/m 4,3 km/h (1 Bft) N-NW 337 8,2 C 21,0 C 6,8 km/h (2 Bft)
24.10.2013 14:05 15,5 C 62 % 1023,4 hPa 0,0 l/m 5,0 km/h (1 Bft) N 360 8,3 C 21,0 C 6,8 km/h (2 Bft)
24.10.2013 14:10 15,3 C 65 % 1023,4 hPa 0,0 l/m 4,2 km/h (1 Bft) N-NW 337 8,8 C 20,9 C 4,8 km/h (1 Bft)
24.10.2013 14:15 15,1 C 66 % 1023,4 hPa 0,0 l/m 4,3 km/h (1 Bft) N-NO 22 8,8 C 20,8 C 2,7 km/h (1 Bft)
24.10.2013 14:20 15,1 C 67 % 1023,4 hPa 0,0 l/m 4,7 km/h (1 Bft) W-NW 292 9,0 C 20,6 C 3,9 km/h (1 Bft)
24.10.2013 14:25 15,0 C 66 % 1022,7 hPa 0,0 l/m 4,0 km/h (1 Bft) N-NO 22 8,7 C 20,8 C 5,0 km/h (1 Bft)
24.10.2013 14:30 14,9 C 67 % 1022,7 hPa 0,0 l/m 3,5 km/h (1 Bft) N 360 8,8 C 20,5 C 2,4 km/h (1 Bft)
24.10.2013 14:35 14,8 C 68 % 1022,7 hPa 0,0 l/m 3,2 km/h (1 Bft) NW 315 9,0 C 19,2 C 3,5 km/h (1 Bft)
24.10.2013 14:40 14,7 C 68 % 1022,7 hPa 0,0 l/m 3,1 km/h (1 Bft) N-NO 22 8,9 C 18,5 C 4,8 km/h (1 Bft)
24.10.2013 14:45 14,8 C 69 % 1022,4 hPa 0,0 l/m 2,4 km/h (1 Bft) N-NW 337 9,2 C 19,3 C 7,4 km/h (2 Bft)
24.10.2013 14:50 15,0 C 69 % 1022,4 hPa 0,0 l/m 2,7 km/h (1 Bft) N-NW 337 9,4 C 20,3 C 2,3 km/h (1 Bft)
24.10.2013 14:55 15,2 C 68 % 1022,4 hPa 0,0 l/m 3,4 km/h (1 Bft) W-NW 292 9,3 C 19,8 C 4,2 km/h (1 Bft)
24.10.2013 15:00 15,3 C 68 % 1022,4 hPa 0,0 l/m 3,9 km/h (1 Bft) N 360 9,4 C 19,0 C 7,1 km/h (2 Bft)
24.10.2013 15:05 14,9 C 69 % 1022,1 hPa 0,0 l/m 4,0 km/h (1 Bft) W-NW 292 9,3 C 18,8 C 6,6 km/h (2 Bft)
24.10.2013 15:10 15,0 C 69 % 1022,1 hPa 0,0 l/m 4,3 km/h (1 Bft) NW 315 9,4 C 19,0 C 3,1 km/h (1 Bft)
24.10.2013 15:15 15,0 C 68 % 1022,1 hPa 0,0 l/m 4,8 km/h (1 Bft) W-NW 292 9,1 C 19,7 C 5,0 km/h (1 Bft)
24.10.2013 15:20 15,1 C 69 % 1022,1 hPa 0,0 l/m 5,0 km/h (1 Bft) W-NW 292 9,5 C 19,9 C 5,0 km/h (1 Bft)
24.10.2013 15:25 14,9 C 70 % 1022,1 hPa 0,0 l/m 4,3 km/h (1 Bft) NO 45 9,5 C 20,3 C 6,1 km/h (2 Bft)
24.10.2013 15:30 14,7 C 70 % 1022,1 hPa 0,0 l/m 4,3 km/h (1 Bft) N-NW 337 9,3 C 20,5 C 6,4 km/h (2 Bft)
24.10.2013 15:35 14,9 C 71 % 1022,1 hPa 0,0 l/m 4,5 km/h (1 Bft) N-NW 337 9,7 C 19,3 C 11,3 km/h (2 Bft)
24.10.2013 15:40 15,0 C 70 % 1022,1 hPa 0,0 l/m 4,7 km/h (1 Bft) N-NO 22 9,6 C 18,2 C 7,1 km/h (2 Bft)
24.10.2013 15:45 15,0 C 70 % 1021,9 hPa 0,0 l/m 4,3 km/h (1 Bft) N-NW 337 9,6 C 17,2 C 2,3 km/h (1 Bft)
24.10.2013 15:50 14,7 C 72 % 1021,9 hPa 0,0 l/m 3,4 km/h (1 Bft) N-NO 22 9,7 C 16,8 C 3,1 km/h (1 Bft)
24.10.2013 15:55 15,0 C 72 % 1021,9 hPa 0,0 l/m 3,2 km/h (1 Bft) W-NW 292 10,0 C 16,7 C 5,8 km/h (2 Bft)
24.10.2013 16:00 15,1 C 71 % 1021,9 hPa 0,0 l/m 4,2 km/h (1 Bft) W 270 9,9 C 16,7 C 6,4 km/h (2 Bft)
24.10.2013 16:05 14,9 C 71 % 1022,0 hPa 0,0 l/m 5,1 km/h (1 Bft) N-NW 337 9,7 C 16,7 C 7,6 km/h (2 Bft)
24.10.2013 16:10 14,9 C 69 % 1022,0 hPa 0,0 l/m 4,3 km/h (1 Bft) W-NW 292 9,3 C 16,6 C 1,6 km/h (1 Bft)
24.10.2013 16:15 14,9 C 70 % 1022,0 hPa 0,0 l/m 3,7 km/h (1 Bft) N 360 9,5 C 16,4 C 1,9 km/h (1 Bft)
24.10.2013 16:20 14,7 C 70 % 1022,0 hPa 0,0 l/m 3,2 km/h (1 Bft) N 360 9,3 C 16,4 C 3,4 km/h (1 Bft)
24.10.2013 16:25 14,7 C 70 % 1021,6 hPa 0,0 l/m 2,1 km/h (1 Bft) N-NW 337 9,3 C 16,6 C 4,8 km/h (1 Bft)
24.10.2013 16:30 14,5 C 71 % 1021,6 hPa 0,0 l/m 2,4 km/h (1 Bft) N 360 9,3 C 16,8 C 2,1 km/h (1 Bft)
24.10.2013 16:35 14,5 C 71 % 1021,6 hPa 0,0 l/m 3,7 km/h (1 Bft) W-NW 292 9,3 C 16,4 C 4,2 km/h (1 Bft)
24.10.2013 16:40 14,2 C 72 % 1021,6 hPa 0,0 l/m 4,0 km/h (1 Bft) N-NW 337 9,2 C 16,2 C 6,3 km/h (2 Bft)
24.10.2013 16:45 14,1 C 72 % 1021,5 hPa 0,0 l/m 4,5 km/h (1 Bft) W-NW 292 9,1 C 16,0 C 5,5 km/h (1 Bft)
24.10.2013 16:50 13,9 C 73 % 1021,5 hPa 0,0 l/m 4,8 km/h (1 Bft) N-NW 337 9,1 C 15,8 C 4,8 km/h (1 Bft)
24.10.2013 16:55 14,0 C 73 % 1021,5 hPa 0,0 l/m 4,5 km/h (1 Bft) N 360 9,2 C 15,6 C 5,6 km/h (1 Bft)
24.10.2013 17:00 13,8 C 74 % 1021,5 hPa 0,0 l/m 3,2 km/h (1 Bft) N-NO 22 9,2 C 15,4 C 2,9 km/h (1 Bft)
24.10.2013 17:05 13,9 C 74 % 1021,2 hPa 0,0 l/m 2,3 km/h (1 Bft) N-NW 337 9,3 C 15,4 C 4,5 km/h (1 Bft)
24.10.2013 17:10 13,7 C 74 % 1021,2 hPa 0,0 l/m 2,3 km/h (1 Bft) N 360 9,2 C 15,4 C 3,1 km/h (1 Bft)
24.10.2013 17:13 13,5 C 75 % 1021,2 hPa 0,0 l/m 2,6 km/h (1 Bft) N-NO 22 9,2 C 15,0 C 4,2 km/h (1 Bft)
24.10.2013 17:15 13,5 C 75 % 1021,2 hPa 0,0 l/m 2,6 km/h (1 Bft) N-NO 22 9,2 C 15,0 C 4,2 km/h (1 Bft)
24.10.2013 17:20 13,4 C 75 % 1021,2 hPa 0,0 l/m 2,4 km/h (1 Bft) N-NW 337 9,1 C 14,6 C 3,4 km/h (1 Bft)
24.10.2013 17:25 13,4 C 75 % 1021,1 hPa 0,0 l/m 2,3 km/h (1 Bft) NO 45 9,1 C 14,2 C 4,8 km/h (1 Bft)
24.10.2013 17:30 13,5 C 75 % 1021,1 hPa 0,0 l/m 2,4 km/h (1 Bft) NO 45 9,2 C 14,1 C 1,6 km/h (1 Bft)
24.10.2013 17:35 13,1 C 76 % 1021,1 hPa 0,0 l/m 2,4 km/h (1 Bft) O-NO 67 9,0 C 13,8 C 3,5 km/h (1 Bft)
24.10.2013 17:40 13,0 C 76 % 1021,1 hPa 0,0 l/m 2,1 km/h (1 Bft) O-NO 67 8,9 C 13,5 C 3,4 km/h (1 Bft)
24.10.2013 17:45 12,8 C 77 % 1020,7 hPa 0,0 l/m 2,1 km/h (1 Bft) O-NO 67 8,9 C 13,2 C 3,1 km/h (1 Bft)
24.10.2013 17:50 12,7 C 77 % 1020,7 hPa 0,0 l/m 1,9 km/h (1 Bft) NO 45 8,8 C 13,0 C 2,4 km/h (1 Bft)
24.10.2013 17:55 12,5 C 78 % 1020,7 hPa 0,0 l/m 2,3 km/h (1 Bft) O 90 8,8 C 12,7 C 3,4 km/h (1 Bft)
24.10.2013 18:00 12,5 C 78 % 1020,7 hPa 0,0 l/m 2,6 km/h (1 Bft) O-NO 67 8,8 C 12,6 C 3,7 km/h (1 Bft)
24.10.2013 18:05 12,3 C 79 % 1020,6 hPa 0,0 l/m 3,1 km/h (1 Bft) O 90 8,8 C 12,3 C 4,5 km/h (1 Bft)
24.10.2013 18:10 12,2 C 79 % 1020,6 hPa 0,0 l/m 3,4 km/h (1 Bft) O 90 8,7 C 12,2 C 2,9 km/h (1 Bft)
24.10.2013 18:15 12,1 C 80 % 1020,6 hPa 0,0 l/m 3,9 km/h (1 Bft) O-NO 67 8,8 C 12,0 C 4,7 km/h (1 Bft)
24.10.2013 18:20 12,0 C 80 % 1020,6 hPa 0,0 l/m 3,5 km/h (1 Bft) O-NO 67 8,7 C 11,8 C 3,1 km/h (1 Bft)
24.10.2013 18:25 11,4 C 81 % 1020,9 hPa 0,0 l/m 1,9 km/h (1 Bft) O 90 8,3 C 11,3 C 3,1 km/h (1 Bft)
24.10.2013 18:30 11,4 C 82 % 1020,9 hPa 0,0 l/m 1,4 km/h (1 Bft) NO 45 8,4 C 11,1 C 2,1 km/h (1 Bft)
24.10.2013 18:35 11,4 C 82 % 1020,9 hPa 0,0 l/m 1,4 km/h (1 Bft) O 90 8,4 C 10,8 C 0,0 km/h (0 Bft)
24.10.2013 18:40 10,6 C 82 % 1020,9 hPa 0,0 l/m 0,6 km/h (0 Bft) NO 45 7,7 C 10,6 C 0,0 km/h (0 Bft)
24.10.2013 18:45 10,5 C 83 % 1021,1 hPa 0,0 l/m 0,0 km/h (0 Bft) O-NO 67 7,7 C 10,1 C 0,0 km/h (0 Bft)
24.10.2013 18:50 10,6 C 83 % 1021,1 hPa 0,0 l/m 0,2 km/h (0 Bft) NO 45 7,8 C 10,1 C 0,0 km/h (0 Bft)
24.10.2013 18:55 10,1 C 83 % 1021,1 hPa 0,0 l/m 0,2 km/h (0 Bft) O 90 7,3 C 9,9 C 0,0 km/h (0 Bft)
24.10.2013 19:00 10,2 C 84 % 1021,1 hPa 0,0 l/m 0,0 km/h (0 Bft) NO 45 7,6 C 9,8 C 0,0 km/h (0 Bft)
24.10.2013 19:05 10,3 C 85 % 1021,3 hPa 0,0 l/m 0,6 km/h (0 Bft) NO 45 7,9 C 9,7 C 1,8 km/h (1 Bft)
24.10.2013 19:10 10,7 C 86 % 1021,3 hPa 0,0 l/m 1,3 km/h (1 Bft) O 90 8,5 C 9,8 C 0,0 km/h (0 Bft)
24.10.2013 19:15 9,8 C 85 % 1021,3 hPa 0,0 l/m 0,8 km/h (0 Bft) N-NO 22 7,4 C 9,6 C 0,0 km/h (0 Bft)
24.10.2013 19:20 10,2 C 86 % 1021,3 hPa 0,0 l/m 0,3 km/h (0 Bft) NO 45 8,0 C 9,6 C 0,0 km/h (0 Bft)
24.10.2013 19:25 9,5 C 85 % 1021,8 hPa 0,0 l/m 0,3 km/h (0 Bft) NO 45 7,1 C 9,4 C 0,0 km/h (0 Bft)
24.10.2013 19:30 9,4 C 86 % 1021,8 hPa 0,0 l/m 0,0 km/h (0 Bft) O-SO 112 7,2 C 9,1 C 0,0 km/h (0 Bft)
24.10.2013 19:35 8,7 C 86 % 1021,8 hPa 0,0 l/m 0,0 km/h (0 Bft) O-SO 112 6,5 C 8,9 C 0,0 km/h (0 Bft)
24.10.2013 19:40 8,5 C 86 % 1021,8 hPa 0,0 l/m 0,0 km/h (0 Bft) S 180 6,3 C 8,8 C 0,0 km/h (0 Bft)
24.10.2013 19:45 8,5 C 86 % 1021,7 hPa 0,0 l/m 0,0 km/h (0 Bft) S-SO 157 6,3 C 8,6 C 0,0 km/h (0 Bft)
24.10.2013 19:50 8,6 C 87 % 1021,7 hPa 0,0 l/m 0,0 km/h (0 Bft) O-NO 67 6,6 C 8,5 C 0,0 km/h (0 Bft)
24.10.2013 19:55 9,6 C 88 % 1021,7 hPa 0,0 l/m 0,0 km/h (0 Bft) NO 45 7,7 C 8,6 C 0,0 km/h (0 Bft)
24.10.2013 20:00 9,9 C 89 % 1021,7 hPa 0,0 l/m 0,0 km/h (0 Bft) O-SO 112 8,2 C 8,9 C 0,0 km/h (0 Bft)
24.10.2013 20:05 8,8 C 88 % 1021,6 hPa 0,0 l/m 0,0 km/h (0 Bft) O-SO 112 6,9 C 8,9 C 0,0 km/h (0 Bft)
24.10.2013 20:10 8,7 C 88 % 1021,6 hPa 0,0 l/m 0,0 km/h (0 Bft) O 90 6,8 C 8,7 C 0,0 km/h (0 Bft)
24.10.2013 20:15 8,5 C 88 % 1021,6 hPa 0,0 l/m 0,0 km/h (0 Bft) O-SO 112 6,6 C 8,7 C 0,0 km/h (0 Bft)
24.10.2013 20:20 8,3 C 89 % 1021,6 hPa 0,0 l/m 0,0 km/h (0 Bft) O-SO 112 6,6 C 8,7 C 0,0 km/h (0 Bft)
24.10.2013 20:25 7,8 C 89 % 1021,6 hPa 0,0 l/m 0,0 km/h (0 Bft) O-SO 112 6,1 C 8,4 C 0,0 km/h (0 Bft)
24.10.2013 20:30 7,7 C 89 % 1021,6 hPa 0,0 l/m 0,0 km/h (0 Bft) O-SO 112 6,0 C 8,0 C 0,0 km/h (0 Bft)
24.10.2013 20:35 7,7 C 89 % 1021,6 hPa 0,0 l/m 0,0 km/h (0 Bft) NO 45 6,0 C 8,0 C 0,0 km/h (0 Bft)
24.10.2013 20:40 7,8 C 89 % 1021,6 hPa 0,0 l/m 0,0 km/h (0 Bft) NO 45 6,1 C 8,0 C 0,0 km/h (0 Bft)
24.10.2013 20:45 7,8 C 89 % 1021,8 hPa 0,0 l/m 0,0 km/h (0 Bft) NO 45 6,1 C 8,0 C 0,0 km/h (0 Bft)
24.10.2013 20:50 7,7 C 89 % 1021,8 hPa 0,0 l/m 0,0 km/h (0 Bft) SO 135 6,0 C 8,0 C 0,0 km/h (0 Bft)
24.10.2013 20:55 7,7 C 89 % 1021,8 hPa 0,0 l/m 0,0 km/h (0 Bft) O-SO 112 6,0 C 7,9 C 0,0 km/h (0 Bft)
24.10.2013 21:00 7,5 C 89 % 1021,8 hPa 0,0 l/m 0,0 km/h (0 Bft) O 90 5,8 C 7,8 C 0,0 km/h (0 Bft)
24.10.2013 21:05 7,4 C 90 % 1021,7 hPa 0,0 l/m 0,0 km/h (0 Bft) N-NO 22 5,9 C 7,8 C 0,0 km/h (0 Bft)
24.10.2013 21:10 7,2 C 89 % 1021,7 hPa 0,0 l/m 0,0 km/h (0 Bft) N-NO 22 5,5 C 7,7 C 0,0 km/h (0 Bft)
24.10.2013 21:15 8,0 C 90 % 1021,7 hPa 0,0 l/m 0,0 km/h (0 Bft) O 90 6,5 C 7,8 C 0,0 km/h (0 Bft)
24.10.2013 21:20 8,0 C 90 % 1021,7 hPa 0,0 l/m 0,0 km/h (0 Bft) O-NO 67 6,5 C 7,8 C 0,0 km/h (0 Bft)
24.10.2013 21:25 7,6 C 90 % 1021,4 hPa 0,0 l/m 0,0 km/h (0 Bft) O-NO 67 6,1 C 7,8 C 0,0 km/h (0 Bft)
24.10.2013 21:30 7,4 C 90 % 1021,4 hPa 0,0 l/m 0,0 km/h (0 Bft) O-SO 112 5,9 C 7,7 C 0,0 km/h (0 Bft)
24.10.2013 21:35 7,2 C 90 % 1021,4 hPa 0,0 l/m 0,0 km/h (0 Bft) O-SO 112 5,7 C 7,5 C 0,0 km/h (0 Bft)
24.10.2013 21:40 7,3 C 90 % 1021,4 hPa 0,0 l/m 0,0 km/h (0 Bft) S 180 5,8 C 7,5 C 0,0 km/h (0 Bft)
24.10.2013 21:45 7,1 C 90 % 1021,4 hPa 0,0 l/m 0,0 km/h (0 Bft) S-SO 157 5,6 C 7,5 C 0,0 km/h (0 Bft)
24.10.2013 21:50 7,2 C 90 % 1021,4 hPa 0,0 l/m 0,0 km/h (0 Bft) O 90 5,7 C 7,4 C 0,0 km/h (0 Bft)
24.10.2013 21:55 7,2 C 90 % 1021,4 hPa 0,0 l/m 0,0 km/h (0 Bft) SO 135 5,7 C 7,4 C 0,0 km/h (0 Bft)
24.10.2013 22:00 7,0 C 90 % 1021,4 hPa 0,0 l/m 0,0 km/h (0 Bft) SO 135 5,5 C 7,4 C 0,0 km/h (0 Bft)
24.10.2013 22:05 6,7 C 90 % 1021,2 hPa 0,0 l/m 0,0 km/h (0 Bft) SW 225 5,2 C 7,4 C 0,0 km/h (0 Bft)
24.10.2013 22:10 6,5 C 90 % 1021,2 hPa 0,0 l/m 0,0 km/h (0 Bft) W-SW 247 5,0 C 7,1 C 0,0 km/h (0 Bft)
24.10.2013 22:15 6,4 C 90 % 1021,2 hPa 0,0 l/m 0,0 km/h (0 Bft) W-NW 292 4,9 C 6,9 C 0,0 km/h (0 Bft)
24.10.2013 22:20 6,7 C 90 % 1021,2 hPa 0,0 l/m 0,0 km/h (0 Bft) NO 45 5,2 C 6,9 C 0,0 km/h (0 Bft)
24.10.2013 22:25 6,3 C 90 % 1021,1 hPa 0,0 l/m 0,0 km/h (0 Bft) O 90 4,8 C 6,9 C 0,0 km/h (0 Bft)
24.10.2013 22:30 6,5 C 90 % 1021,1 hPa 0,0 l/m 0,0 km/h (0 Bft) O-NO 67 5,0 C 6,9 C 0,0 km/h (0 Bft)
24.10.2013 22:35 6,4 C 90 % 1021,1 hPa 0,0 l/m 0,0 km/h (0 Bft) N-NO 22 4,9 C 6,9 C 0,0 km/h (0 Bft)
24.10.2013 22:40 6,9 C 91 % 1021,1 hPa 0,0 l/m 0,0 km/h (0 Bft) O-NO 67 5,5 C 6,9 C 0,0 km/h (0 Bft)
24.10.2013 22:45 6,8 C 91 % 1020,9 hPa 0,0 l/m 0,0 km/h (0 Bft) N 360 5,4 C 6,9 C 0,0 km/h (0 Bft)
24.10.2013 22:50 6,5 C 91 % 1020,9 hPa 0,0 l/m 0,0 km/h (0 Bft) N 360 5,1 C 6,9 C 0,0 km/h (0 Bft)
24.10.2013 22:55 6,7 C 91 % 1020,9 hPa 0,0 l/m 0,0 km/h (0 Bft) N-NW 337 5,3 C 6,9 C 0,0 km/h (0 Bft)
24.10.2013 23:00 6,5 C 91 % 1020,9 hPa 0,0 l/m 0,0 km/h (0 Bft) N 360 5,1 C 6,8 C 0,0 km/h (0 Bft)
24.10.2013 23:05 6,5 C 91 % 1020,6 hPa 0,0 l/m 0,0 km/h (0 Bft) N-NW 337 5,1 C 6,7 C 0,0 km/h (0 Bft)
24.10.2013 23:10 6,1 C 91 % 1020,6 hPa 0,0 l/m 0,0 km/h (0 Bft) SO 135 4,7 C 6,5 C 0,0 km/h (0 Bft)
24.10.2013 23:13 6,2 C 91 % 1020,6 hPa 0,0 l/m 0,0 km/h (0 Bft) N-NW 337 4,8 C 6,3 C 0,0 km/h (0 Bft)
24.10.2013 23:15 6,2 C 91 % 1020,6 hPa 0,0 l/m 0,0 km/h (0 Bft) N-NW 337 4,8 C 6,3 C 0,0 km/h (0 Bft)
24.10.2013 23:20 6,3 C 91 % 1020,6 hPa 0,0 l/m 0,0 km/h (0 Bft) O 90 4,9 C 6,3 C 0,0 km/h (0 Bft)
24.10.2013 23:25 6,5 C 92 % 1020,4 hPa 0,0 l/m 0,0 km/h (0 Bft) NW 315 5,3 C 6,5 C 0,0 km/h (0 Bft)
24.10.2013 23:30 6,2 C 91 % 1020,4 hPa 0,0 l/m 0,0 km/h (0 Bft) NW 315 4,8 C 6,6 C 0,0 km/h (0 Bft)
24.10.2013 23:35 6,6 C 92 % 1020,4 hPa 0,0 l/m 0,0 km/h (0 Bft) O-NO 67 5,4 C 6,5 C 0,0 km/h (0 Bft)
24.10.2013 23:40 6,5 C 92 % 1020,4 hPa 0,0 l/m 0,0 km/h (0 Bft) O 90 5,3 C 6,5 C 0,0 km/h (0 Bft)
24.10.2013 23:45 6,6 C 92 % 1020,4 hPa 0,0 l/m 0,0 km/h (0 Bft) O 90 5,4 C 6,6 C 0,0 km/h (0 Bft)
24.10.2013 23:50 6,0 C 92 % 1020,4 hPa 0,0 l/m 0,0 km/h (0 Bft) O-NO 67 4,8 C 6,5 C 0,0 km/h (0 Bft)
24.10.2013 23:55 5,3 C 93 % 1020,4 hPa 0,0 l/m 0,0 km/h (0 Bft) S-SW 202 4,3 C 6,4 C 0,0 km/h (0 Bft)
_ Min-Zeit 23:55 14:00 00:00 - 23:55 - - 23:55 23:20 23:55
Minimum _ 5,3 C 59 % 1019,0 hPa - 0,0 km/h (0 Bft) - - 4,3 C 6,3 C 0,0 km/h (0 Bft)
_ Max-Zeit 13:55 11:10 13:40 07:35 16:05 - - 13:00 12:35 15:35
Maximum _ 16,4 C 96 % 1023,8 hPa 0,7 l/m 5,1 km/h
N-NW (1 Bft)
- - 12,1 C 22,7 C 11,3 km/h
N-NW (2 Bft)
Durchschnitt _ 10,2 C 88 % 1021,4 hPa #0,7 l/m 1,3 km/h (1 Bft) N-NW - 8,1 C 11,9 C 1,6 km/h (1 Bft)